Regional Weather Roundup
Issued by NWS Newport/Morehead, NC

Current Version | Previous Version | Text Only | Print | Product List | Glossary On
Versions: 1 2 3 4 5 6 7 8 9 10 11 12 13 14 15 16 17 18 19 20 21 22 23 24 25 26 27 28 29 30 31 32 33 34 35 36 37 38 39 40 41 42 43 44 45 46 47 48 49 50
888 ASUS42 KMHX 061413 RWRMHX WEATHER ROUNDUP FOR EASTERN NORTH CAROLINA NATIONAL WEATHER SERVICE NEWPORT/MOREHEAD CITY NC 1000 AM EDT FRI MAY 06 2016 NOTE: "FAIR" INDICATES FEW OR NO CLOUDS BELOW 12,000 FEET WITH NO SIGNIFICANT WEATHER AND/OR OBSTRUCTIONS TO VISIBILITY NCZ015>017-031-032-045>047-102-103-061500- NORTH COAST CITY SKY/WX TMP DP RH WIND PRES REMARKS EDENTON CLOUDY 55 55 100 CALM 29.70R ELIZABETH CITY CLOUDY 55 49 80 CALM 29.69R KITTY HAWK CLOUDY 58 52 79 E3 29.68R MANTEO CLOUDY 57 51 80 SW6 29.69S $$ NCZ045>047-081-094-103-104-061500- CENTRAL COAST CITY SKY/WX TMP DP RH WIND PRES REMARKS FRISCO SUNNY 57 50 77 SW13G18 29.69R SWANQUARTER NOT AVBL $$ NCZ095-097-098-100-101-061500- SOUTHERN COAST CITY SKY/WX TMP DP RH WIND PRES REMARKS BEAUFORT CLOUDY 54 48 80 W13 29.72R CEDAR ISLAND NOT AVBL JACKSONVILLE CLOUDY 55 49 80 W9 29.72R PINEY ISLAND CLOUDY N/A N/A N/A SW13 29.71R WILMINGTON CLOUDY 55 48 77 W10 29.75R $$ NCZ011>013-027>030-043-044-078>080-089-090>093-098-061500- COASTAL PLAIN CITY SKY/WX TMP DP RH WIND PRES REMARKS AHOSKIE LGT RAIN 51 50 95 CALM 29.70R CLINTON CLOUDY 54 51 89 NW6 29.75R ELIZABETHTOWN CLOUDY 54 48 81 W9 29.76R GOLDSBORO CLOUDY 55 55 100 W9 29.71R GREENVILLE CLOUDY 54 52 94 NW6 29.74R HAVELOCK DRIZZLE 54 52 93 SW10 29.72R KENANSVILLE CLOUDY 55 48 75 W9 29.74R KINSTON CLOUDY 57 50 77 NW8 29.72R NEW BERN CLOUDY 55 51 86 W8 29.72R RICHLANDS CLOUDY 56 51 84 W8 29.73R ROCKY MOUNT PTSUNNY 56 51 84 N9 29.71R WASHINGTON CLOUDY 54 52 92 CALM 29.69R WHITEVILLE NOT AVBL $$ AMZ130-135-150-152-154-156-158-170-250-252-270-ANZ085-086-088-633-658-670-061500- MARINE OBSERVATIONS STATION/POSITION TIME TEMP WIND PRES WAVE SWELL AIR SEA DIR/SP/G HT/PER HT/PER (UTC) (F) (DEG/KT/KT) (MB) (FT/S) (FT/S) CHESAPEAKE LIGHT 1400 53 210/ 2/ 3 1006.0 64 E VA BEACH 1350 51 52 250/ 8/ 12 1005.0 6/ 8 7/ 8 DUCK 1300 54 59 30/ 2/ 2 1004.4 2 E DUCK 1311 60 N/A 5/ 8 2/11 OREGON INLET 1300 56 59 150/ 4/ 6 1004.9 13E OREGON INLT 1300 56 N/A 6/ 8 5/ 8 HATTERAS CG 1300 58 65 220/ 12/ 16 1004.7 DIAMOND BUOY 1250 61 76 270/ 14/ 21 1004.8 5/ 8 5/ 8 CAPE LOOKOUT 1400 54 240/ 9/ 13 1006.0 BEAUFORT LAB 1300 52 65 300/ 6/ 11 1005.1 30 SE NEW RVR IN 1325 72 N/A 5/ 7 27 SE WRIGHTSVLE 1308 56 72 280/ 12/ 19 1006.9 5 SE WRIGHTSVLE 1308 54 69 300/ 14/ 19 1007.4 225 S CAPE HAT 1250 70 73 280/ 12/ 19 1007.7 8/ 9 7/ 9 41 SE CHARLESTON 1250 59 72 300/ 16/ 19 1008.9 4/ 5 $$

USA.gov is the U.S. government's official web portal to all federal, state and local government web resources and services.